Flag for Taiwan Weather past 2 weeks in Kaohsiung, Taiwan

Now
79 °F

Partly cloudy.


Feels Like: 81 °F
Forecast: 73 / 86 °F
Wind: 7 mph from Northwest

Location: Kaohsiung International Airport

Current Time: Apr 25, 2015 at 8:13:44 PM

Latest Report: Apr 25, 2015 at 7:30 PM


Visibility: 6 mi

Pressure: 29.98 "Hg

Humidity: 70%

Dew point: 68 °F

Location of KaohsiungLocation

Historic Weather in Kaohsiung — Graph

°F

Kaohsiung temperature yesterday

Maximum temperature yesterday: 86 °F (at 1:30 PM)
Minimum temperature yesterday: 73 °F (at 6:00 AM)
Average temperature yesterday: 80 °F

Past Weeks' High & Low Weather Summary

 TemperatureHumidityPressure
High90 °F (Apr 19, 2:30 PM)100% (Apr 11, 11:00 PM)30.09 "Hg (Apr 11, 11:00 PM)
Low63 °F (Apr 15, 4:00 AM)18% (Apr 14, 10:30 AM)29.77 "Hg (Apr 19, 3:00 PM)
Average78 °F67%29.96 "Hg
* Reported Apr 10 7:00 PM — Apr 25 7:00 PM, Kaohsiung, Weather by CustomWeather, © 2015

Note: Actual official high and low records may vary slightly from our data, if they occured in-between our weather recording intervals... More about our weather records

Advertising

Kaohsiung weather history for previous 24 hours

 ConditionsComfort  
Time TempWeatherWind HumidityBarometerVisibility
7:00 PM
Sat, Apr 25
79 °FPassing clouds.7 mph70%29.98 "Hg5 mi
6:30 PM81 °FPassing clouds.8 mph70%29.95 "Hg5 mi
6:00 PM81 °FBroken clouds.9 mph66%29.95 "Hg5 mi
5:30 PM81 °FScattered clouds.9 mph66%29.95 "Hg5 mi
5:00 PM82 °FPassing clouds.9 mph62%29.92 "Hg5 mi
4:30 PM82 °FScattered clouds.12 mph66%29.95 "Hg5 mi
4:00 PM82 °FScattered clouds.9 mph70%29.95 "Hg5 mi
3:30 PM82 °FPassing clouds.10 mph70%29.95 "Hg5 mi
3:00 PM84 °FPassing clouds.12 mph62%29.95 "Hg5 mi
2:30 PM84 °FPassing clouds.13 mph62%29.95 "Hg4 mi
2:00 PM84 °FPassing clouds.14 mph66%29.95 "Hg4 mi
1:30 PM84 °FPassing clouds.13 mph58%29.95 "Hg4 mi
1:00 PM84 °FPassing clouds.12 mph62%29.98 "Hg4 mi
12:30 PM84 °FPassing clouds.12 mph62%29.98 "Hg4 mi
12:00 PM84 °FPartly sunny.12 mph66%30.01 "Hg4 mi
11:30 AM84 °FBroken clouds.10 mph62%30.01 "Hg3 mi
11:00 AM82 °FBroken clouds.12 mph70%30.01 "Hg2 mi
10:53 AM82 °FBroken clouds.12 mph66%30.01 "Hg2 mi
10:30 AM84 °FBroken clouds.7 mph58%30.01 "Hg6 mi
10:00 AM82 °FBroken clouds.6 mph66%30.01 "Hg4 mi
9:55 AM82 °FBroken clouds.6 mph66%30.01 "Hg3 mi
9:30 AM82 °FBroken clouds.3 mph66%30.04 "Hg2 mi
9:00 AM81 °FBroken clouds.2 mph70%30.01 "Hg2 mi
8:30 AM79 °FBroken clouds.3 mph74%30.01 "Hg2 mi
8:00 AM79 °FScattered clouds.6 mph79%30.01 "Hg2 mi
7:30 AM77 °FFog.6 mph83%30.01 "Hg1 mi
7:00 AM75 °FFog.5 mph89%30.01 "Hg1 mi
6:30 AM75 °FFog.6 mph89%30.01 "Hg1 mi
6:00 AM75 °FFog.5 mph89%29.98 "Hg1 mi
5:00 AM75 °FFog.5 mph89%29.98 "Hg2 mi
4:00 AM75 °FFog.5 mph89%29.98 "Hg2 mi
3:00 AM75 °FFog.6 mph89%29.95 "Hg2 mi
2:00 AM77 °FFog.3 mph79%29.98 "Hg2 mi
1:00 AM77 °FFog.5 mph79%29.98 "Hg2 mi
12:00 AM77 °FFog.3 mph79%29.98 "Hg3 mi
11:30 PM
Fri, Apr 24
77 °FFog.3 mph79%30.01 "Hg2 mi
11:00 PM77 °FFog.3 mph79%30.01 "Hg2 mi
10:30 PM77 °FHaze.7 mph83%30.01 "Hg2 mi
10:00 PM79 °FHaze.7 mph79%30.01 "Hg3 mi
9:30 PM79 °FHaze.8 mph79%30.01 "Hg3 mi
9:04 PM81 °FHaze.6 mph74%30.01 "Hg3 mi
8:30 PM81 °FPassing clouds.5 mph70%29.98 "Hg4 mi
8:00 PM81 °FPassing clouds.3 mph79%29.98 "Hg4 mi
Weather by CustomWeather, © 2015

See weather overviewHow to use our weather pages